默认 日期 大小 文件数 浏览量 最新下载 xml
workout磁力链接相关资源由用户搜索指令自动获取,结果来源于网络,本站不存储任何资料,亦不承担任何责任,请于24小时内删除,搜索到9312个磁力,显示前4000条数据,用时8ms。
    {"Supreme 90 Day.pdf": 1198541, "Tom Holland - Supreme 90 Day - D.7 Legs.avi": 239837904, "Tom Holland - Supreme 90 Day - D.1 Total Body.avi": 243652750, "Tom Holland - Supreme 90 Day - D.4 Chest & Back.avi": 236714956, "Tom Holland - Supreme 90 Day - D.9 ...
创建时间: 2019-02-05 05:51:36 大小:2.75 GB 文件数量:11 热度:6 最近下载:2022-11-12 12:35:55
    ... , "19. Timber (2017 Dance Workout Mix).mp3": 11389730, "08. ... Runaway (2017 Dance Workout Mix).mp3": 12744964, "36. ... Secrets (2017 Dance Workout Mix).mp3": 11117014, "21. Sandstorm ... , "44. Middle (2017 Cooldown Workout Mix).mp3": 11847401, "05. ...
创建时间: 2019-02-05 06:14:21 大小:465.02 MB 文件数量:45 热度:5 最近下载:2022-11-12 09:49:15
    {"cover.jpg": 365644, "18. Alka - Pump The Beat (Radio Edit).mp3": 5967497, "25. Alka - Drop The Boom (Radio Edit).mp3": 5381309, "14. Luke Db - Don't Worry (Radio Edit).mp3": 5737620, "26. Moornor - Take My Time (Radio Edit).mp3": 7742779, "01. Spikaa ...
创建时间: 2019-02-05 08:19:15 大小:194.19 MB 文件数量:29 热度:10 最近下载:2025-08-06 15:24:03
    {"pixandvideo.17.12.22.tina.kay.the.workout[N1C].mp4": 1049361004}
创建时间: 2019-02-05 11:55:50 大小:1000.75 MB 文件数量:1 热度:7 最近下载:2024-01-20 11:46:02
    {"Covers": {"cic-bbw.back.jpg": 129692, "cic-bbw.front.jpg": 87124}, "cic-bbw.mp4": 1073555207, "cic-bbw.nfo": 7640, "Torrent Downloaded From ExtraTorrent.cc.nfo": 338}
创建时间: 2019-02-05 13:58:54 大小:1 GB 文件数量:5 热度:5 最近下载:2022-11-12 10:37:04
    {"jiggly-analworkout.nfo": 468, "jiggly-analworkout-cd1.avi": 731150336, "jiggly-analworkout-cd2.avi": 732338176}
创建时间: 2019-02-05 15:49:47 大小:1.36 GB 文件数量:3 热度:4 最近下载:2022-11-12 12:31:59
    ... ).mp3": 8856064, "VA - The Best Workout Dance Tracks (2019).JPG": 86466 ...
创建时间: 2019-02-05 17:35:11 大小:304.97 MB 文件数量:31 热度:5 最近下载:2022-11-12 10:51:52
    {"fugli.nfo": 12219, "8980001.jpg": 283680, "8980002.jpg": 363213, "8980003.jpg": 232531, "8980004.jpg": 201810, "8980005.jpg": 268032, "8980006.jpg": 271379, "8980007.jpg": 250052, "8980008.jpg": 213759, "8980009.jpg": 262077, "8980010.jpg": 262831, " ...
创建时间: 2019-02-05 19:03:39 大小:23.39 MB 文件数量:94 热度:19 最近下载:2025-01-04 09:51:08
    {"RARBG.txt": 30, "RARBG_DO_NOT_MIRROR.exe": 99, "lesbianx.19.02.02.brooke.beretta.and.crystal.rush.big.boob.anal.workout.4k.mp4": 3543935557, "lesbianx.19.02.02.brooke.beretta.and.crystal.rush.big.boob.anal.workout.4k.nfo": 5227}
创建时间: 2019-02-05 19:12:06 大小:3.3 GB 文件数量:4 热度:50 最近下载:2025-05-16 21:33:02
    {"BlackGFs - Ivy Young (Peeping My Workout) 02.08.17 720p.mp4": 1004029109}
创建时间: 2019-02-05 22:30:58 大小:957.52 MB 文件数量:1 热度:9 最近下载:2025-03-31 11:22:02
    {"Crunch Workout DVD": {"Crunch Workout DVD": {"Crunch - Fat Burning Dance Party.avi": 1182234990}, "Crunch WorkoutDVD.jpg": 60496, "Torrent downloaded from Demonoid.com.txt": 47}}
创建时间: 2019-02-05 22:32:21 大小:1.1 GB 文件数量:3 热度:4 最近下载:2022-11-12 10:01:12
    {"poster.jpg": 23724, "screens.jpg": 128679, "RARBG.com.txt": 33, "50618.01.big.mp4": 294925480}
创建时间: 2019-02-06 02:49:01 大小:281.41 MB 文件数量:4 热度:5 最近下载:2022-11-15 19:31:59
    {"milfhunter.16.10.03.jamie.valentine.real.workout.mp4": 3367605191}
创建时间: 2019-02-06 04:23:52 大小:3.14 GB 文件数量:1 热度:12 最近下载:2025-04-23 15:26:01
    {"ils-pilgbw.nfo": 10833, "ils.pilates.gymball.workout.2007.stv.dvdrip.xvid.avi": 366426112}
创建时间: 2019-02-06 04:51:16 大小:349.46 MB 文件数量:2 热度:10 最近下载:2025-08-07 02:52:03
    {"theworkout.jpg": 45014, "03. Champion.mp3": 7199583, "12. Yoga Mat.mp3": 6401281, "11. Bruce Lee.mp3": 8814996, "02. Blood Pumpin'.mp3": 3510053, "06. Sober Soldier.mp3": 9539114, "09. Let It Burn feat. Coach NYM.mp3": 8930998, "13. Healthy Livin' feat. ...
创建时间: 2019-02-06 04:53:22 大小:104.23 MB 文件数量:15 热度:3 最近下载:2022-11-15 20:21:20
    ... ": 122449, "[RealityKings] Kendra Lust - Kendras Workout (08.10.2018) rq.mp4 ...
创建时间: 2019-02-06 07:04:56 大小:337.33 MB 文件数量:8 热度:11 最近下载:2025-08-18 02:40:01
    {"RARBG.com.txt": 34, "hart.16.01.19.anya.ripped.body.workout.mp4": 270502934, "hart.16.01.19.anya.ripped.body.workout.nfo": 5197}
创建时间: 2019-02-06 10:01:37 大小:257.98 MB 文件数量:3 热度:22 最近下载:2025-03-16 16:54:01
    {"the.biggest.winner.how.to.win.by.losing.jillian.michaels.shape.up.front.exercise.fitness.workout.zip": 35613325}
创建时间: 2019-02-06 10:31:59 大小:33.96 MB 文件数量:1 热度:12 最近下载:2025-09-19 01:12:02
    {"RARBG.txt": 30, "fugli.nfo": 12168, "file_id.diz": 673, "alex_harper_s4-001.jpg": 1600749, "alex_harper_s4-002.jpg": 1475333, "alex_harper_s4-003.jpg": 1607730, "alex_harper_s4-004.jpg": 1620873, "alex_harper_s4-005.jpg": 1608002, "alex_harper_s4-006.jpg ...
创建时间: 2019-02-06 14:20:45 大小:142.23 MB 文件数量:100 热度:15 最近下载:2025-05-23 13:48:02
    {"cover.jpg": 395298, "04. Kino - Money (Fitness Version 135 Bpm).mp3": 9981824, "07. Kangaroo - 1999 (Fitness Version 135 Bpm).mp3": 9977728, "13. Dj Space'c - Emoji (Fitness Version 135 Bpm).mp3": 9408384, "01. Blue Minds - Broken (Fitness Version 135 ...
创建时间: 2019-02-06 14:42:12 大小:142.33 MB 文件数量:16 热度:5 最近下载:2024-06-28 03:56:01